Location: Newark
(45.5000°N, 11.4167°E)
Time: 16:19:06
(UTC+00:00)

Transit 2A Rocket - Pass Details

Date: 29 August 2019
Orbit: 592 x 911 km, 66.7° (Epoch: 22 September)

Event Time Altitude Azimuth Distance (km) Brightness Sun altitude
Rises 23:21:30 0° 335° (NNW) 3,061 8.9 -35.3°
Reaches altitude 10° 23:25:08 10° 2° (N) 2,073 8.0 -35.3°
Maximum altitude 23:27:24 13° 32° (NNE) 1,818 7.5 -35.2°
Enters shadow 23:28:44 12° 51° (NE) 1,879 7.4 -35.2°
